Change the Weather History Date:

Wednesday, October 3, 2012

  Actual Average Record
Temperature  
Mean Temperature 50 °F -  
Max Temperature 71 °F 61 °F 73 °F (2010)
Min Temperature 30 °F 28 °F 24 °F (2007)
Degree Days  
Heating Degree Days 14    
Moisture  
Dew Point 22 °F    
Average Humidity 39    
Maximum Humidity 70    
Minimum Humidity 15    
Precipitation  
Precipitation 0.00 in - - ()
Sea Level Pressure  
Sea Level Pressure 30.23 in    
Wind  
Wind Speed 4 mph (NW)    
Max Wind Speed 24 mph    
Max Gust Speed 32 mph    
Visibility 10 miles    
Events      
Averages and records for this station are not official NWS values.
T = Trace of Precipitation, MM = Missing Value Source: NWS Daily Summary

Daily Weather History Graph

Daily Weather History Graph

Search for Another Location

Airport or City:

Trip Planner

Search our weather history database for the weather conditions in past years. The results will help you decide how hot, cold, wet, or windy it might be!

Date:

Astronomy

Oct. 03, 2012 Rise Set
Actual Time 7:05 AM MDT 6:46 PM MDT
Civil Twilight 6:39 AM MDT 7:13 PM MDT
Nautical Twilight 6:08 AM MDT 7:43 PM MDT
Astronomical Twilight 5:37 AM MDT 8:14 PM MDT
Moon 8:43 PM MDT (10/3) 10:28 AM MDT (10/3)
Length of Visible Light 12h 33m
Length of Day
11h 40m
Waning Gibbous, 88% of the Moon is Illuminated
Oct 3
Waning Gibbous
Oct 8
Last Quarter
Oct 15
New
Oct 21
First Quarter
Oct 29
Full

Hourly Weather History & Observations

Time (MDT) Temp. Windchill Dew Point Humidity Pressure Visibility Wind Dir Wind Speed Gust Speed Precip Events Conditions
12:15 AM 41.0 °F - 26.6 °F 57% 30.24 in 10.0 mi Calm Calm - N/A   Clear
12:55 AM 39.2 °F - 24.8 °F 56% 30.24 in 10.0 mi Calm Calm - N/A   Clear
1:15 AM 37.4 °F - 24.8 °F 60% 30.24 in 10.0 mi Calm Calm - N/A   Clear
1:35 AM 37.4 °F - 24.8 °F 60% 30.24 in 10.0 mi Calm Calm - N/A   Clear
1:55 AM 37.4 °F - 24.8 °F 60% 30.24 in 10.0 mi Calm Calm - N/A   Clear
2:15 AM 35.6 °F - 24.8 °F 65% 30.25 in 10.0 mi Calm Calm - N/A   Clear
2:35 AM 35.6 °F - 23.0 °F 60% 30.25 in 10.0 mi Calm Calm - N/A   Clear
2:55 AM 33.8 °F - 21.2 °F 60% 30.25 in 10.0 mi Calm Calm - N/A   Clear
3:15 AM 35.6 °F 32.8 °F 21.2 °F 56% 30.25 in 10.0 mi North 3.5 mph - N/A   Clear
3:35 AM 35.6 °F - 24.8 °F 65% 30.25 in 10.0 mi Calm Calm - N/A   Clear
3:55 AM 33.8 °F - 24.8 °F 70% 30.25 in 10.0 mi Calm Calm - N/A   Clear
4:15 AM 33.8 °F - 23.0 °F 65% 30.25 in 10.0 mi Calm Calm - N/A   Clear
4:35 AM 33.8 °F 30.8 °F 23.0 °F 65% 30.25 in 10.0 mi North 3.5 mph - N/A   Clear
4:55 AM 33.8 °F 30.8 °F 23.0 °F 65% 30.26 in 10.0 mi North 3.5 mph - N/A   Clear
5:15 AM 32.0 °F - 23.0 °F 69% 30.26 in 10.0 mi Calm Calm - N/A   Clear
5:35 AM 30.2 °F - 19.4 °F 64% 30.26 in 10.0 mi Calm Calm - N/A   Clear
5:55 AM 30.2 °F - 21.2 °F 69% 30.27 in 10.0 mi Calm Calm - N/A   Clear
6:15 AM 30.2 °F - 21.2 °F 69% 30.27 in 10.0 mi Calm Calm - N/A   Clear
9:35 AM 42.8 °F - 26.6 °F 53% 30.27 in 10.0 mi Calm Calm - N/A   Clear
9:55 AM 44.6 °F - 24.8 °F 46% 30.27 in 10.0 mi Calm Calm - N/A   Clear
10:15 AM 46.4 °F - 24.8 °F 43% 30.26 in 10.0 mi Calm Calm - N/A   Clear
10:35 AM 50.0 °F - 26.6 °F 40% 30.26 in 10.0 mi SSE 4.6 mph - N/A   Clear
10:55 AM 51.8 °F - 26.6 °F 38% 30.25 in 10.0 mi Calm Calm - N/A   Clear
11:15 AM 53.6 °F - 24.8 °F 33% 30.24 in 10.0 mi East 3.5 mph - N/A   Clear
11:35 AM 55.4 °F - 26.6 °F 33% 30.23 in 10.0 mi Calm Calm - N/A   Clear
11:55 AM 59.0 °F - 26.6 °F 29% 30.22 in 10.0 mi Calm Calm - N/A   Clear
12:15 PM 60.8 °F - 26.6 °F 27% 30.21 in 10.0 mi Calm Calm - N/A   Clear
12:35 PM 64.4 °F - 28.4 °F 26% 30.19 in 10.0 mi East 3.5 mph - N/A   Mostly Cloudy
12:55 PM 69.8 °F - 26.6 °F 20% 30.18 in 10.0 mi West 17.3 mph 28.8 mph N/A   Scattered Clouds
1:15 PM 71.6 °F - 24.8 °F 17% 30.18 in 10.0 mi West 20.7 mph 27.6 mph N/A   Clear
1:35 PM 71.6 °F - 23.0 °F 16% 30.17 in 10.0 mi West 24.2 mph 32.2 mph N/A   Clear
2:35 PM 71.6 °F - 21.2 °F 15% 30.16 in 10.0 mi West 16.1 mph 27.6 mph N/A   Clear
2:55 PM 71.6 °F - 21.2 °F 15% 30.15 in 10.0 mi WNW 20.7 mph 27.6 mph N/A   Clear
3:15 PM 71.6 °F - 21.2 °F 15% 30.15 in 10.0 mi WSW 20.7 mph 28.8 mph N/A   Clear
3:35 PM 71.6 °F - 21.2 °F 15% 30.15 in 10.0 mi West 17.3 mph 21.9 mph N/A   Partly Cloudy
3:55 PM 69.8 °F - 21.2 °F 16% 30.15 in 10.0 mi WSW 19.6 mph 31.1 mph N/A   Partly Cloudy
5:15 PM 69.8 °F - 19.4 °F 15% 30.16 in 10.0 mi West 16.1 mph 27.6 mph N/A   Scattered Clouds
5:35 PM 69.8 °F - 19.4 °F 15% 30.17 in 10.0 mi WSW 13.8 mph 24.2 mph N/A   Partly Cloudy
5:55 PM 69.8 °F - 19.4 °F 15% 30.18 in 10.0 mi West 15.0 mph 20.7 mph N/A   Mostly Cloudy
6:15 PM 68.0 °F - 19.4 °F 16% 30.19 in 10.0 mi West 17.3 mph 25.3 mph N/A   Mostly Cloudy
6:35 PM 66.2 °F - 17.6 °F 15% 30.20 in 10.0 mi West 16.1 mph 24.2 mph N/A   Partly Cloudy
7:15 PM 64.4 °F - 15.8 °F 15% 30.21 in 10.0 mi NW 10.4 mph - N/A   Clear
7:35 PM 62.6 °F - 15.8 °F 16% 30.21 in 10.0 mi WNW 11.5 mph - N/A   Clear
7:55 PM 62.6 °F - 15.8 °F 16% 30.21 in 10.0 mi NNW 8.1 mph - N/A   Clear
8:55 PM 55.4 °F - 15.8 °F 21% 30.24 in 10.0 mi NW 6.9 mph - N/A   Clear
9:15 PM 53.6 °F - 17.6 °F 24% 30.24 in 10.0 mi Calm Calm - N/A   Partly Cloudy
9:55 PM 50.0 °F - 17.6 °F 28% 30.25 in 10.0 mi North 4.6 mph - N/A   Clear
10:15 PM 50.0 °F - 19.4 °F 30% 30.25 in 10.0 mi North - - N/A   Clear
10:35 PM 48.2 °F - 19.4 °F 32% 30.25 in 10.0 mi NNE 3.5 mph - N/A   Clear
10:55 PM 46.4 °F - 19.4 °F 34% 30.25 in 10.0 mi Calm Calm - N/A   Clear
11:15 PM 44.6 °F - 19.4 °F 37% 30.26 in 10.0 mi Calm Calm - N/A   Partly Cloudy
11:35 PM 42.8 °F 40.1 °F 21.2 °F 42% 30.25 in 10.0 mi NE 4.6 mph - N/A   Partly Cloudy
11:55 PM 42.8 °F 38.6 °F 19.4 °F 39% 30.27 in 10.0 mi NNE 6.9 mph - N/A   Scattered Clouds